Showing default

FR 1, 1814

Orbit data source: Space-Track

FR 1, 1814 is a payload satellite owned by CNES (FR) in LEO that was launched on Mon, 06 Dec 1965 UTC via an SCOUT X-4 launch vehicle from the Air Force Western Test Range (AFWTR). Payload-class satellites include a variety of spacecraft equipped with specific instruments for various scientific and technological missions. These include communications satellites like Starlink; space stations such as the ISS; scientific satellites like the Hubble; Earth observation satellites from companies like Planet Labs, Umbra, and HawkEye 360; GPS; miniature CubeSats for education and research; and military/defense satellites.

Loading next visibility...
Identifier
1814, 1965-101A
Orbit
LEO
Last TLE update
7 hours ago
Origin
Manufacturer
Nord
Mission
Civil Science
Bus & Motor
FR, Unknown motor
Mass
62 kg wet, 62 kg dry
Launch date (UTC)
1965-12-06 (60 years ago)
Launch vehicle
SCOUT X-4
Launch site
Air Force Western Test Range (AFWTR)
Object type
Payload
Rocket body
Debris
Shape & HBR
Poly + 4 Ant, 4.3 m
Radar Cross Section
1.303 m², Medium (>0.1 m² and < 1m²)

Expand to show TLE details & history

TLE from 7 hours ago
0 FR 1
1 01814U 65101A   25182.61786215  .00000527  00000-0  88885-4 0  9996
2 01814  75.8648 235.6228 0005579 261.0212  99.0338 14.70834685  4543
Epoch: 2025-07-01T14:49Z
TLE epoch observation values (Epoch: 2025-07-01T14:49:43.289Z)
Latitude
-0.00006°
Longitude
93.28168°
Altitude
661.777 km
Speed
7.526 km/s
True Right ascension
15h 42m 29s
True Declination
0° 00' 00"
Sunlit
Object was in full shadow at epoch
Visualization orbit readout
Latitude
3.08734°
Longitude
93.58597°
Altitude
661.686 km
Speed
7.526 km/s
Apparent Right ascension
17h 49m 13s
Apparent Declination
-21° 45' 15"
Sunlit
Object is in full shadow
Visualization observer readout
Local Sidereal Time
09:02:37
Azimuth
80.848° E
Elevation
-45.336°
Doppler factor
1
Orbital elements
Apogee altitude
659.764 km
Perigee altitude
651.916 km
Semi-major axis
7,033.977 km
Eccentricity
0.00056
Inclination
75.8648°
RAAN
235.6228°
Arg. of periapsis
261.0212°
True anomaly
Unknown
Mean anomaly
99.0338°
Eccentric anomaly
Unknown
Mean motion
3.6791 °/min
Orbital period
97.85 mins
BSTAR
0.000088885
Loading maneuver chart data...
Loading SW <> Apogee altitude chart data...
Loading historical data...
Loading historical data...
Loading historical data...
Loading historical data...
Loading historical data...
Loading historical data...
Loading historical data...

FR 1 Visibility forecast

Observer location: undefined°, undefined°

Span
Click to sort rows by Start time (UTC) header in descending order
Start Az.
Max El. time (UTC)
Max El. Az.
Max El.
End time (UTC)
End Az.
7 mins2025-07-02 04:00:22.825Z159.205° S2025-07-02 04:04:22.825Z91.414° ESE27.908°2025-07-02 04:07:22.825Z42.008° NE
5 mins2025-07-02 05:41:22.825Z257.248° W2025-07-02 05:43:22.825Z291.279° WNW21.746°2025-07-02 05:46:22.825Z340.682° N
6 mins2025-07-02 14:15:22.825Z17.945° NNE2025-07-02 14:18:22.825Z78.427° E26.362°2025-07-02 14:21:22.825Z124.306° SE
5 mins2025-07-02 15:55:22.825Z296.72° NW2025-07-02 15:57:22.825Z259.572° W22.397°2025-07-02 16:00:22.825Z213.794° SW
|